period_start,C,m1,H,J0,J1,J2,J3,J4,J5,JA,JB,JC,JD,JJ,JK,JN,#
2017-03-17 00:03:29,0.19,1.10,0.00,23.28,26.34,30.04,14.42,48.79,1013.16,2032.00,3122.62,2769.88,3174.36,599.83,593.29,6.01,0000 0000 0000 0000 000000
2017-03-17 00:08:30,0.18,1.11,0.00,23.25,26.33,30.09,14.48,48.99,1012.89,2032.00,3119.03,2767.45,3171.54,599.95,593.30,6.06,0000 0000 0000 0000 000000
2017-03-17 00:13:32,0.18,1.12,0.00,23.24,26.32,30.14,14.44,48.99,1013.00,2032.00,3115.40,2765.04,3168.78,599.75,593.22,6.11,0000 0000 0000 0000 000000
2017-03-17 00:18:33,0.18,1.13,0.00,23.23,26.32,30.08,14.52,48.89,1013.19,2032.00,3111.92,2762.61,3166.04,599.95,593.52,6.16,0000 0000 0000 0000 000000
2017-03-17 00:23:34,0.17,1.14,0.00,23.35,26.32,30.03,14.43,48.77,1013.00,2032.00,3108.52,2760.30,3163.31,599.98,593.15,6.21,0000 0000 0000 0000 000000
2017-03-17 00:28:36,0.18,1.15,0.00,23.34,26.32,29.97,14.42,48.85,1013.02,2032.00,3105.07,2757.94,3160.62,599.71,593.00,6.26,0000 0000 0000 0000 000000
2017-03-17 00:33:37,0.18,1.16,0.00,23.42,26.32,29.98,14.43,49.10,1013.13,2032.00,3101.59,2755.44,3157.78,600.19,593.34,6.31,0000 0000 0000 0000 000000
2017-03-17 00:38:38,0.19,1.17,0.00,23.46,26.34,30.04,14.44,48.87,1012.94,2031.99,3098.00,2752.98,3154.93,599.97,592.93,6.36,0000 0000 0000 0000 000000
2017-03-17 00:43:40,0.17,1.18,0.00,23.37,26.35,30.04,14.45,49.05,1013.03,2031.98,3094.58,2750.74,3152.24,599.89,593.09,6.41,0000 0000 0000 0000 000000
2017-03-17 00:48:41,0.18,1.18,0.00,23.27,26.35,30.05,14.46,49.04,1012.89,2031.99,3091.13,2748.44,3149.49,599.82,593.15,6.46,0000 0000 0000 0000 000000
2017-03-17 00:53:42,0.18,1.20,0.00,23.23,26.35,30.14,14.49,49.13,1012.96,2031.97,3087.73,2746.10,3146.77,600.27,593.70,6.51,0000 0000 0000 0000 000000
2017-03-17 00:58:43,0.17,1.20,0.00,23.23,26.35,30.20,14.51,49.07,1012.92,2031.97,3084.28,2743.70,3144.06,600.05,593.51,6.56,0000 0000 0000 0000 000000
2017-03-17 01:03:45,0.18,1.21,0.00,23.37,26.35,30.12,14.49,49.14,1012.80,2031.98,3080.88,2741.31,3141.31,600.07,593.22,6.61,0000 0000 0000 0000 000000
2017-03-17 01:08:46,0.18,1.22,0.00,23.37,26.35,30.04,14.41,49.07,1012.97,2031.98,3077.40,2738.92,3138.54,600.06,593.23,6.66,0000 0000 0000 0000 000000
2017-03-17 01:13:47,0.18,1.23,0.00,23.32,26.35,30.08,14.41,48.83,1012.82,2031.94,3073.82,2736.50,3135.74,600.30,593.46,6.71,0000 0000 0000 0000 000000
2017-03-17 01:18:48,0.18,1.24,0.00,23.28,26.35,30.11,14.43,48.77,1013.12,2031.93,3070.37,2734.15,3133.19,599.70,593.11,6.76,0000 0000 0000 0000 000000
2017-03-17 01:23:50,0.18,1.25,0.00,23.38,26.36,30.09,14.38,48.66,1013.18,2031.92,3066.92,2731.80,3130.51,599.91,593.14,6.81,0000 0000 0000 0000 000000
2017-03-17 01:28:51,0.17,1.26,0.00,23.37,26.37,30.04,14.45,48.77,1013.20,2031.87,3063.60,2729.42,3127.84,599.84,593.20,6.86,0000 0000 0000 0000 000000
2017-03-17 01:33:53,0.16,1.27,0.00,23.48,26.37,30.06,14.44,48.59,1013.21,2031.61,3060.08,2727.01,3125.00,600.01,593.10,6.91,0000 0000 0000 0000 000000
2017-03-17 01:38:54,0.19,1.28,0.00,23.48,26.39,30.07,14.45,48.58,1013.22,2031.47,3056.60,2724.51,3122.21,600.05,593.13,6.96,0000 0000 0000 0000 000000
2017-03-17 01:43:54,0.14,1.28,0.00,23.34,26.40,30.09,14.48,48.63,1013.21,2031.23,3053.11,2722.16,3119.52,600.29,593.54,7.01,0000 0000 0000 0000 000000
2017-03-17 01:48:56,0.18,1.29,0.00,23.34,26.40,30.11,14.47,48.58,1013.22,2031.16,3049.63,2719.83,3116.84,600.12,593.43,7.06,0000 0000 0000 0000 000000
2017-03-17 01:53:57,0.18,1.30,0.00,23.46,26.40,30.12,14.47,48.66,1013.23,2031.06,3046.12,2717.39,3114.10,600.09,593.22,7.11,0000 0000 0000 0000 000000
2017-03-17 01:58:58,0.18,1.31,0.00,23.46,26.40,30.04,14.40,48.97,1013.21,2031.05,3042.69,2715.01,3111.32,600.04,593.15,7.17,0000 0000 0000 0000 000000
2017-03-17 02:04:00,0.19,1.32,0.00,23.53,26.41,30.06,14.45,48.93,1013.20,2031.04,3039.20,2712.57,3108.51,600.27,593.25,7.22,0000 0000 0000 0000 000000
2017-03-17 02:09:01,0.19,1.33,0.00,23.40,26.42,30.10,14.46,48.83,1013.20,2031.05,3035.57,2710.09,3105.64,600.25,593.48,7.27,0000 0000 0000 0000 000000
2017-03-17 02:14:02,0.18,1.34,0.00,23.39,26.42,30.16,14.52,48.83,1013.21,2031.08,3032.02,2707.59,3102.79,600.10,593.36,7.32,0000 0000 0000 0000 000000
2017-03-17 02:19:03,0.19,1.35,0.00,23.51,26.42,30.11,14.42,48.72,1013.51,2031.03,3028.51,2705.21,3100.04,599.79,592.99,7.37,0000 0000 0000 0000 000000
2017-03-17 02:24:04,0.19,1.36,0.00,23.51,26.42,30.06,14.46,48.83,1013.69,2031.01,3025.00,2702.82,3097.24,600.17,593.38,7.42,0000 0000 0000 0000 000000
2017-03-17 02:29:05,0.18,1.37,0.00,23.56,26.42,30.08,14.47,48.76,1013.70,2031.02,3021.62,2700.46,3094.60,600.16,593.34,7.47,0000 0000 0000 0000 000000
2017-03-17 02:34:07,0.18,1.38,0.00,23.60,26.45,30.11,14.37,48.73,1013.69,2031.03,3018.15,2698.13,3091.88,599.49,592.60,7.52,0000 0000 0000 0000 000000
2017-03-17 02:39:08,0.18,1.39,0.00,23.60,26.45,30.07,14.43,48.75,1013.70,2031.01,3014.59,2695.71,3089.12,600.19,593.31,7.57,0000 0000 0000 0000 000000
2017-03-17 02:44:09,0.19,1.40,0.00,23.55,26.45,30.07,14.48,48.67,1013.89,2031.00,3010.96,2693.27,3086.30,600.09,593.55,7.62,0000 0000 0000 0000 000000
2017-03-17 02:49:10,0.19,1.41,0.00,23.58,26.45,30.08,14.43,48.50,1014.17,2031.00,3007.38,2690.69,3083.40,600.56,593.91,7.67,0000 0000 0000 0000 000000
2017-03-17 02:54:12,0.19,1.42,0.00,23.57,26.46,30.06,14.41,48.43,1014.19,2031.00,3003.90,2688.27,3080.61,599.78,593.21,7.72,0000 0000 0000 0000 000000
2017-03-17 02:59:13,0.18,1.43,0.00,23.60,26.47,30.06,14.50,48.57,1014.18,2031.00,3000.32,2685.93,3077.79,600.10,593.54,7.77,0000 0000 0000 0000 000000
2017-03-17 03:04:14,0.19,1.44,0.00,23.64,26.47,30.07,14.39,48.52,1014.18,2031.00,2996.70,2683.52,3074.97,599.68,593.00,7.82,0000 0000 0000 0000 000000
2017-03-17 03:09:15,0.22,1.45,0.00,23.60,26.47,30.05,14.46,48.77,1014.14,2030.99,2992.91,2680.76,3071.88,600.10,593.34,7.87,0000 0000 0000 0000 000000
2017-03-17 03:14:17,0.21,1.46,0.00,23.64,26.47,30.08,14.45,48.79,1014.08,2030.99,2989.06,2677.97,3068.71,600.07,593.31,7.92,0000 0000 0000 0000 000000
2017-03-17 03:19:18,0.21,1.47,0.00,23.68,26.50,30.10,14.40,48.75,1014.16,2030.99,2985.34,2675.27,3065.61,599.80,593.06,7.97,0000 0000 0000 0000 000000
2017-03-17 03:24:19,0.19,1.48,0.00,23.72,26.50,30.12,14.40,48.84,1014.17,2030.99,2981.72,2672.77,3062.68,599.72,592.84,8.02,0000 0000 0000 0000 000000
2017-03-17 03:29:21,0.19,1.49,0.00,23.65,26.50,30.07,14.40,48.99,1014.17,2030.99,2978.17,2670.36,3059.85,599.78,593.17,8.07,0000 0000 0000 0000 000000
2017-03-17 03:34:22,0.20,1.50,0.00,23.63,26.50,30.06,14.40,48.90,1014.17,2030.98,2974.41,2667.70,3056.88,599.91,593.25,8.12,0000 0000 0000 0000 000000
2017-03-17 03:39:23,0.19,1.51,0.00,23.63,26.50,30.02,14.47,48.90,1014.16,2030.99,2970.84,2665.31,3054.14,600.46,593.80,8.17,0000 0000 0000 0000 000000
2017-03-17 03:44:24,0.20,1.52,0.00,23.67,26.50,30.04,14.44,48.98,1013.87,2030.97,2967.28,2662.77,3051.28,600.04,593.14,8.22,0000 0000 0000 0000 000000
2017-03-17 03:49:26,0.19,1.53,0.00,23.59,26.50,30.04,14.47,48.94,1014.01,2030.97,2963.64,2660.30,3048.41,600.02,593.53,8.27,0000 0000 0000 0000 000000
2017-03-17 03:54:27,0.19,1.54,0.00,23.60,26.49,30.08,14.39,48.87,1014.17,2030.99,2960.16,2657.95,3045.71,599.96,593.33,8.32,0000 0000 0000 0000 000000
2017-03-17 03:59:28,0.24,1.55,0.00,23.63,26.49,30.04,14.46,48.96,1014.17,2030.99,2956.25,2655.00,3042.37,600.24,593.57,8.37,0000 0000 0000 0000 000000
2017-03-17 04:04:29,0.21,1.56,0.00,23.63,26.49,30.04,14.37,48.93,1014.22,2030.98,2952.51,2652.26,3039.29,599.60,592.97,8.42,0000 0000 0000 0000 000000
2017-03-17 04:09:30,0.20,1.57,0.00,23.62,26.49,30.04,14.47,48.92,1014.34,2030.98,2948.88,2649.66,3036.30,599.88,593.46,8.47,0000 0000 0000 0000 000000
2017-03-17 04:14:32,0.19,1.58,0.00,23.52,26.48,30.09,14.47,48.98,1014.58,2030.97,2945.27,2647.28,3033.51,599.73,593.49,8.52,0000 0000 0000 0000 000000
2017-03-17 04:19:33,0.19,1.59,0.00,23.60,26.47,30.08,14.50,48.91,1014.66,2030.97,2941.95,2644.95,3030.87,600.09,593.82,8.57,0000 0000 0000 0000 000000
2017-03-17 04:24:34,0.19,1.60,0.00,23.56,26.47,30.01,14.49,48.89,1014.67,2030.96,2938.47,2642.56,3028.14,600.03,593.80,8.62,0000 0000 0000 0000 000000
2017-03-17 04:29:35,0.19,1.61,0.00,23.60,26.47,30.03,14.45,48.77,1014.69,2030.98,2935.03,2640.26,3025.45,599.92,593.82,8.67,0000 0000 0000 0000 000000
2017-03-17 04:34:36,0.19,1.62,0.00,23.56,26.47,30.05,14.49,48.80,1014.69,2030.96,2931.59,2637.96,3022.87,600.11,593.82,8.72,0000 0000 0000 0000 000000
2017-03-17 04:39:38,0.19,1.63,0.00,23.53,26.47,30.07,14.47,48.77,1014.68,2030.96,2928.09,2635.56,3020.12,600.19,593.99,8.77,0000 0000 0000 0000 000000
2017-03-17 04:44:39,0.19,1.64,0.00,23.59,26.47,30.09,14.44,48.65,1014.68,2030.94,2924.55,2633.18,3017.37,600.01,593.73,8.82,0000 0000 0000 0000 000000
2017-03-17 04:49:40,0.19,1.65,0.00,23.58,26.47,30.04,14.50,48.88,1014.68,2030.88,2921.12,2630.79,3014.65,600.15,593.87,8.87,0000 0000 0000 0000 000000
2017-03-17 04:54:42,0.19,1.66,0.00,23.64,26.47,30.06,14.37,48.74,1014.72,2030.94,2917.80,2628.54,3012.05,599.83,593.48,8.92,0000 0000 0000 0000 000000
2017-03-17 04:59:43,0.19,1.67,0.00,23.67,26.47,30.06,14.40,48.73,1014.70,2030.95,2914.40,2626.25,3009.44,599.94,593.50,8.97,0000 0000 0000 0000 000000
2017-03-17 05:04:45,0.19,1.68,0.00,23.70,26.48,30.08,14.42,48.77,1014.70,2030.91,2910.91,2623.86,3006.84,599.97,593.52,9.02,0000 0000 0000 0000 000000
2017-03-17 05:09:46,0.18,1.69,0.00,23.72,26.49,30.07,14.38,48.73,1014.68,2030.90,2907.52,2621.71,3004.25,599.79,593.28,9.07,0000 0000 0000 0000 000000
2017-03-17 05:14:47,0.19,1.70,0.00,23.72,26.49,30.06,14.39,48.77,1014.67,2030.82,2903.96,2619.26,3001.45,599.78,593.12,9.12,0000 0000 0000 0000 000000
2017-03-17 05:19:49,0.19,1.71,0.00,23.67,26.49,30.04,14.48,48.76,1014.66,2030.84,2900.52,2616.93,2998.73,600.05,593.59,9.17,0000 0000 0000 0000 000000
2017-03-17 05:24:49,0.18,1.72,0.00,23.51,26.47,30.01,14.45,48.92,1014.68,2030.68,2896.97,2614.51,2996.01,600.00,593.87,9.22,0000 0000 0000 0000 000000
2017-03-17 05:29:51,0.21,1.73,0.00,23.48,26.47,30.10,14.52,48.84,1014.77,2030.76,2893.49,2612.11,2993.20,600.14,594.08,9.27,0000 0000 0000 0000 000000
2017-03-17 05:34:52,0.19,1.74,0.00,23.55,26.45,30.15,14.49,48.74,1014.97,2030.90,2890.10,2609.77,2990.59,600.36,594.33,9.32,0000 0000 0000 0000 000000
2017-03-17 05:39:53,0.19,1.75,0.00,23.60,26.45,30.08,14.43,48.73,1015.10,2030.92,2886.72,2607.51,2987.98,599.76,593.70,9.37,0000 0000 0000 0000 000000
2017-03-17 05:44:55,0.19,1.76,0.00,23.60,26.45,30.01,14.49,48.92,1015.09,2030.94,2883.40,2605.24,2985.38,600.19,594.02,9.42,0000 0000 0000 0000 000000
2017-03-17 05:49:56,0.18,1.77,0.00,23.67,26.45,29.99,14.42,48.85,1015.07,2030.82,2880.01,2602.88,2982.67,599.90,593.73,9.47,0000 0000 0000 0000 000000
2017-03-17 05:54:57,0.20,1.78,0.00,23.67,26.45,30.00,14.47,48.89,1015.00,2030.86,2876.74,2600.39,2979.93,600.37,594.12,9.52,0000 0000 0000 0000 000000
2017-03-17 05:59:58,0.19,1.79,0.00,23.70,26.45,30.04,14.41,48.77,1014.91,2030.89,2873.33,2598.13,2977.25,599.79,593.45,9.58,0000 0000 0000 0000 000000
2017-03-17 06:05:00,0.18,1.80,0.00,23.69,26.46,30.05,14.38,48.92,1014.82,2030.76,2869.89,2595.74,2974.50,599.74,593.33,9.63,0000 0000 0000 0000 000000
2017-03-17 06:10:01,0.18,1.81,0.00,23.70,26.47,30.08,14.36,48.83,1014.83,2030.54,2866.35,2593.34,2971.75,599.94,593.52,9.68,0000 0000 0000 0000 000000
2017-03-17 06:15:02,0.19,1.82,0.00,23.72,26.47,30.09,14.43,48.94,1014.82,2030.44,2862.99,2591.03,2969.10,600.08,593.62,9.73,0000 0000 0000 0000 000000
2017-03-17 06:20:03,0.20,1.83,0.00,23.64,26.47,30.07,14.48,49.01,1014.79,2030.50,2859.46,2588.57,2966.37,600.08,593.70,9.78,0000 0000 0000 0000 000000
2017-03-17 06:25:04,0.25,1.84,0.00,23.64,26.47,30.04,14.47,48.91,1014.75,2030.52,2855.53,2585.72,2963.05,600.30,593.95,9.83,0000 0000 0000 0000 000000
2017-03-17 06:30:04,0.21,1.85,0.00,23.66,26.47,30.03,14.48,48.99,1014.76,2030.65,2851.81,2583.14,2960.12,599.91,593.63,9.88,0000 0000 0000 0000 000000
2017-03-17 06:35:06,0.20,1.86,0.00,23.69,26.48,30.03,14.46,49.07,1014.71,2030.39,2847.96,2580.45,2956.92,600.09,593.74,9.93,0000 0000 0000 0000 000000
2017-03-17 06:40:07,0.22,1.87,0.00,23.70,26.49,30.04,14.43,48.97,1014.70,2030.15,2843.95,2577.44,2953.53,600.17,593.66,9.98,0000 0000 0000 0000 000000
2017-03-17 06:45:09,0.21,1.88,0.00,23.69,26.50,30.06,14.45,48.96,1014.74,2030.23,2840.35,2575.02,2950.75,599.82,593.41,10.03,0000 0000 0000 0000 000000
2017-03-17 06:50:10,0.21,1.89,0.00,23.70,26.50,30.06,14.44,49.02,1015.02,2030.20,2836.76,2572.51,2947.83,600.03,593.78,10.08,0000 0000 0000 0000 000000
2017-03-17 06:55:11,0.23,1.90,0.00,23.71,26.50,30.07,14.44,49.02,1015.11,2030.25,2833.10,2569.89,2944.89,600.03,593.79,10.13,0000 0000 0000 0000 000000
2017-03-17 07:00:12,0.20,1.91,0.00,23.59,26.50,30.03,14.45,48.99,1014.90,2030.19,2829.51,2567.40,2942.25,599.91,593.76,10.18,0000 0000 0000 0000 000000
2017-03-17 07:05:13,0.21,1.93,0.00,23.45,26.49,30.09,14.40,49.01,1014.73,2030.21,2825.96,2565.07,2939.52,599.83,593.90,10.23,0000 0000 0000 0000 000000
2017-03-17 07:10:15,0.21,1.94,0.00,23.41,26.47,30.21,14.49,49.13,1014.70,2030.26,2822.35,2562.58,2936.68,599.93,594.02,10.28,0000 0000 0000 0000 000000
2017-03-17 07:15:16,0.23,1.95,0.00,23.52,26.47,30.18,14.45,49.03,1014.80,2030.27,2818.72,2560.09,2933.82,599.98,593.81,10.33,0000 0000 0000 0000 000000
2017-03-17 07:20:18,0.22,1.96,0.00,23.53,26.47,30.01,14.41,49.15,1014.86,2030.28,2814.96,2557.53,2930.62,599.92,593.87,10.38,0000 0000 0000 0000 000000
2017-03-17 07:25:19,0.21,1.97,0.00,23.59,26.47,30.02,14.42,49.15,1014.89,2030.27,2811.36,2554.95,2927.71,599.85,593.69,10.43,0000 0000 0000 0000 000000
2017-03-17 07:30:20,0.21,1.98,0.00,23.52,26.47,30.06,14.48,49.12,1014.79,2030.30,2807.82,2552.49,2924.91,599.88,593.85,10.48,0000 0000 0000 0000 000000
2017-03-17 07:35:21,0.22,1.99,0.00,23.40,26.46,30.07,14.48,49.13,1015.04,2030.37,2804.04,2549.93,2921.95,600.05,594.35,10.53,0000 0000 0000 0000 000000
2017-03-17 07:40:23,0.25,2.00,0.00,23.40,26.45,30.19,14.57,49.19,1015.14,2030.50,2800.33,2547.31,2919.02,600.28,594.59,10.58,0000 0000 0000 0000 000000
2017-03-17 07:45:24,0.22,2.02,0.00,23.52,26.45,30.16,14.56,49.08,1015.15,2030.52,2796.46,2544.60,2915.86,600.42,594.55,10.63,0000 0000 0000 0000 000000
2017-03-17 07:50:25,0.20,2.03,0.00,23.50,26.45,30.05,14.42,49.04,1015.16,2030.41,2792.89,2542.08,2912.99,599.76,593.96,10.68,0000 0000 0000 0000 000000
2017-03-17 07:55:26,0.21,2.04,0.00,23.52,26.45,30.06,14.44,48.99,1015.22,2030.41,2789.40,2539.63,2910.16,599.57,593.66,10.73,0000 0000 0000 0000 000000
2017-03-17 08:00:27,0.19,2.05,0.00,23.52,26.45,30.11,14.45,48.92,1015.30,2030.11,2785.73,2537.15,2907.26,600.30,594.51,10.78,0000 0000 0000 0000 000000
2017-03-17 08:05:29,0.20,2.06,0.00,23.55,26.45,30.09,14.46,49.02,1015.54,2030.15,2782.25,2534.78,2904.55,599.93,594.30,10.83,0000 0000 0000 0000 000000
2017-03-17 08:10:30,0.20,2.07,0.00,23.52,26.45,30.05,14.45,49.00,1015.64,2030.13,2778.77,2532.43,2901.86,600.01,594.39,10.88,0000 0000 0000 0000 000000
2017-03-17 08:15:31,0.21,2.08,0.00,23.56,26.47,30.09,14.42,49.00,1015.64,2030.10,2775.28,2530.03,2899.15,599.85,594.28,10.93,0000 0000 0000 0000 000000
2017-03-17 08:20:33,0.20,2.09,0.00,23.44,26.47,30.10,14.43,48.83,1015.64,2030.10,2771.83,2527.69,2896.47,599.98,594.56,10.98,0000 0000 0000 0000 000000
2017-03-17 08:25:34,0.21,2.10,0.00,23.41,26.47,30.15,14.54,48.99,1015.64,2030.07,2768.23,2525.29,2893.71,600.22,594.82,11.03,0000 0000 0000 0000 000000
2017-03-17 08:30:35,0.22,2.11,0.00,23.48,26.47,30.18,14.46,49.02,1015.66,2030.06,2764.56,2522.76,2890.84,599.80,594.39,11.08,0000 0000 0000 0000 000000
2017-03-17 08:35:37,0.22,2.12,0.00,23.47,26.47,30.10,14.40,48.98,1015.67,2030.04,2760.95,2520.22,2887.95,599.98,594.45,11.13,0000 0000 0000 0000 000000
2017-03-17 08:40:38,0.22,2.13,0.00,23.48,26.47,30.12,14.47,48.99,1015.71,2030.05,2757.37,2517.76,2885.16,599.99,594.54,11.18,0000 0000 0000 0000 000000
2017-03-17 08:45:39,0.21,2.14,0.00,23.38,26.47,30.18,14.45,49.01,1015.66,2030.04,2753.75,2515.33,2882.33,599.71,594.49,11.23,0000 0000 0000 0000 000000
2017-03-17 08:50:41,0.23,2.15,0.00,23.40,26.47,30.23,14.53,49.24,1015.64,2030.05,2750.16,2512.78,2879.48,600.24,594.83,11.28,0000 0000 0000 0000 000000
2017-03-17 08:55:42,0.23,2.17,0.00,23.48,26.47,30.16,14.47,49.23,1015.64,2030.01,2746.30,2510.08,2876.55,599.94,594.45,11.33,0000 0000 0000 0000 000000
2017-03-17 09:00:43,0.22,2.18,0.00,23.46,26.47,30.12,14.54,49.28,1015.64,2030.02,2742.59,2507.50,2873.57,600.46,595.01,11.38,0000 0000 0000 0000 000000
2017-03-17 09:05:45,0.27,2.19,0.00,23.38,26.47,30.17,14.48,49.26,1015.65,2030.02,2738.45,2504.54,2870.19,599.76,594.52,11.43,0000 0000 0000 0000 000000
2017-03-17 09:10:46,0.27,2.21,0.00,23.27,26.47,30.21,14.50,49.26,1015.65,2030.01,2734.19,2501.41,2866.52,599.57,594.52,11.48,0000 0000 0000 0000 000000
2017-03-17 09:15:48,0.22,2.22,0.00,23.22,26.47,30.25,14.49,49.27,1015.70,2030.01,2730.43,2498.83,2863.59,599.82,594.89,11.53,0000 0000 0000 0000 000000
2017-03-17 09:20:49,0.23,2.23,0.00,23.21,26.45,30.24,14.48,49.25,1015.85,2030.03,2726.71,2496.30,2860.65,599.98,595.09,11.58,0000 0000 0000 0000 000000
2017-03-17 09:25:50,0.23,2.24,0.00,23.34,26.45,30.22,14.42,49.20,1015.93,2030.05,2722.91,2493.85,2857.67,599.76,594.61,11.63,0000 0000 0000 0000 000000
2017-03-17 09:30:51,0.23,2.25,0.00,23.34,26.45,30.10,14.52,49.19,1016.05,2030.06,2719.07,2491.23,2854.67,600.33,595.31,11.68,0000 0000 0000 0000 000000
2017-03-17 09:35:53,0.22,2.27,0.00,23.42,26.45,30.11,14.47,49.21,1016.11,2030.06,2715.37,2488.68,2851.80,599.91,594.81,11.73,0000 0000 0000 0000 000000
2017-03-17 09:40:54,0.24,2.28,0.00,23.44,26.47,30.11,14.48,49.19,1016.13,2030.03,2711.55,2486.05,2848.79,600.42,595.24,11.78,0000 0000 0000 0000 000000
2017-03-17 09:45:55,0.24,2.29,0.00,23.29,26.47,30.13,14.54,49.23,1016.13,2030.01,2707.64,2483.42,2845.69,600.04,595.14,11.83,0000 0000 0000 0000 000000
2017-03-17 09:50:57,0.24,2.30,0.00,23.20,26.47,30.24,14.55,49.38,1016.13,2030.01,2703.63,2480.61,2842.51,600.17,595.48,11.88,0000 0000 0000 0000 000000
2017-03-17 09:55:58,0.23,2.31,0.00,23.18,26.45,30.28,14.49,49.54,1016.13,2030.02,2699.79,2478.07,2839.56,600.09,595.51,11.94,0000 0000 0000 0000 000000
2017-03-17 10:00:59,0.24,2.33,0.00,23.24,26.45,30.24,14.52,49.18,1016.13,2030.02,2695.97,2475.46,2836.57,599.92,595.31,11.99,0000 0000 0000 0000 000000
2017-03-17 10:06:00,0.22,2.34,0.00,23.35,26.45,30.15,14.52,49.33,1016.20,2030.02,2692.32,2472.98,2833.71,599.87,594.99,12.04,0000 0000 0000 0000 000000
2017-03-17 10:11:01,0.23,2.35,0.00,23.35,26.45,30.11,14.56,49.20,1016.32,2030.01,2688.68,2470.49,2830.85,599.88,595.00,12.09,0000 0000 0000 0000 000000
2017-03-17 10:16:03,0.22,2.36,0.00,23.30,26.45,30.14,14.56,49.31,1016.18,2030.00,2685.11,2468.04,2828.02,600.18,595.36,12.14,0000 0000 0000 0000 000000
2017-03-17 10:21:04,0.22,2.37,0.00,23.21,26.45,30.22,14.50,49.26,1016.27,2030.01,2681.48,2465.53,2825.23,600.07,595.48,12.19,0000 0000 0000 0000 000000
2017-03-17 10:26:05,0.22,2.38,0.00,23.31,26.45,30.21,14.48,49.20,1016.31,2030.01,2677.99,2463.18,2822.49,600.36,595.53,12.24,0000 0000 0000 0000 000000
2017-03-17 10:31:07,0.22,2.39,0.00,23.35,26.45,30.11,14.51,49.11,1016.51,2030.01,2674.41,2460.76,2819.72,600.18,595.44,12.29,0000 0000 0000 0000 000000
2017-03-17 10:36:08,0.23,2.41,0.00,23.40,26.45,30.11,14.52,49.13,1016.58,2030.01,2670.81,2458.30,2816.93,599.81,595.02,12.34,0000 0000 0000 0000 000000
2017-03-17 10:41:09,0.22,2.42,0.00,23.28,26.45,30.16,14.49,48.92,1016.57,2030.00,2667.14,2455.90,2814.24,599.76,595.12,12.39,0000 0000 0000 0000 000000
2017-03-17 10:46:10,0.22,2.43,0.00,23.27,26.45,30.22,14.53,49.09,1016.58,2030.01,2663.52,2453.45,2811.49,600.10,595.57,12.44,0000 0000 0000 0000 000000
2017-03-17 10:51:11,0.23,2.44,0.00,23.40,26.45,30.17,14.56,48.98,1016.62,2030.01,2659.88,2451.00,2808.68,600.05,595.27,12.49,0000 0000 0000 0000 000000
2017-03-17 10:56:12,0.22,2.45,0.00,23.39,26.45,30.08,14.54,49.07,1016.62,2030.00,2656.33,2448.54,2805.88,600.18,595.51,12.54,0000 0000 0000 0000 000000
2017-03-17 11:01:14,0.24,2.46,0.00,23.39,26.45,30.10,14.57,49.03,1016.62,2030.00,2652.65,2446.13,2803.07,600.39,595.58,12.59,0000 0000 0000 0000 000000
2017-03-17 11:06:15,0.22,2.48,0.00,23.28,26.45,30.15,14.52,48.94,1016.62,2030.00,2648.93,2443.60,2800.22,600.14,595.41,12.64,0000 0000 0000 0000 000000
2017-03-17 11:11:16,0.24,2.49,0.00,23.30,26.45,30.22,14.50,49.10,1016.62,2030.01,2645.29,2441.16,2797.36,600.08,595.50,12.69,0000 0000 0000 0000 000000
2017-03-17 11:16:17,0.22,2.50,0.00,23.40,26.45,30.13,14.45,49.01,1016.64,2030.00,2641.62,2438.66,2794.52,599.69,594.93,12.74,0000 0000 0000 0000 000000
2017-03-17 11:21:18,0.23,2.51,0.00,23.44,26.45,30.10,14.58,48.98,1016.70,2030.01,2638.06,2436.25,2791.75,600.20,595.41,12.79,0000 0000 0000 0000 000000
2017-03-17 11:26:19,0.23,2.52,0.00,23.43,26.46,30.08,14.45,48.78,1016.76,2030.00,2634.34,2433.72,2788.88,599.94,595.15,12.84,0000 0000 0000 0000 000000
2017-03-17 11:31:20,0.24,2.53,0.00,23.35,26.46,30.13,14.45,48.91,1016.70,2030.00,2630.63,2431.31,2786.00,599.69,594.94,12.89,0000 0000 0000 0000 000000
2017-03-17 11:36:21,0.24,2.55,0.00,23.38,26.45,30.21,14.51,48.89,1016.68,2030.00,2626.80,2428.73,2783.07,599.81,595.15,12.94,0000 0000 0000 0000 000000
2017-03-17 11:41:23,0.24,2.56,0.00,23.43,26.45,30.21,14.51,48.78,1016.64,2030.00,2623.01,2426.22,2780.04,600.28,595.46,12.99,0000 0000 0000 0000 000000
2017-03-17 11:46:24,0.25,2.57,0.00,23.43,26.46,30.10,14.47,48.93,1016.65,2030.00,2619.22,2423.55,2777.03,599.89,595.04,13.04,0000 0000 0000 0000 000000
2017-03-17 11:51:25,0.26,2.58,0.00,23.53,26.47,30.10,14.55,48.86,1016.66,2030.00,2615.20,2420.81,2773.92,600.08,595.05,13.09,0000 0000 0000 0000 000000
2017-03-17 11:56:26,0.26,2.60,0.00,23.53,26.47,30.12,14.42,48.88,1016.65,2030.00,2611.11,2418.03,2770.77,600.08,595.08,13.14,0000 0000 0000 0000 000000
2017-03-17 12:01:28,0.26,2.61,0.00,23.51,26.48,30.11,14.54,48.81,1016.64,2029.99,2607.02,2415.30,2767.58,600.20,595.22,13.19,0000 0000 0000 0000 000000
2017-03-17 12:06:29,0.27,2.62,0.00,23.54,26.50,30.12,14.49,48.76,1016.66,2029.99,2602.89,2412.49,2764.32,599.91,594.88,13.24,0000 0000 0000 0000 000000
2017-03-17 12:11:30,0.27,2.64,0.00,23.57,26.50,30.13,14.53,48.82,1016.67,2029.99,2598.74,2409.68,2761.11,599.75,594.75,13.29,0000 0000 0000 0000 000000
2017-03-17 12:16:32,0.28,2.65,0.00,23.47,26.50,30.11,14.48,48.93,1016.65,2029.99,2594.45,2406.80,2757.79,599.92,595.03,13.34,0000 0000 0000 0000 000000
2017-03-17 12:21:33,0.28,2.67,0.00,23.53,26.50,30.15,14.55,49.00,1016.65,2029.99,2590.17,2403.94,2754.51,600.46,595.37,13.39,0000 0000 0000 0000 000000
2017-03-17 12:26:34,0.26,2.68,0.00,23.54,26.51,30.07,14.47,48.88,1016.64,2029.99,2586.07,2401.12,2751.34,600.24,595.02,13.44,0000 0000 0000 0000 000000
2017-03-17 12:31:36,0.27,2.69,0.00,23.56,26.52,30.07,14.44,48.89,1016.63,2029.99,2581.96,2398.32,2748.26,599.83,594.88,13.49,0000 0000 0000 0000 000000
2017-03-17 12:36:37,0.27,2.71,0.00,23.56,26.52,30.09,14.48,49.03,1016.63,2029.97,2577.80,2395.49,2745.00,599.90,594.78,13.54,0000 0000 0000 0000 000000
2017-03-17 12:41:39,0.26,2.72,0.00,23.53,26.52,30.10,14.50,49.05,1016.63,2029.97,2573.80,2392.79,2741.92,600.00,594.89,13.59,0000 0000 0000 0000 000000
2017-03-17 12:46:40,0.25,2.73,0.00,23.56,26.52,30.13,14.54,49.13,1016.64,2029.96,2569.97,2390.21,2738.93,600.67,595.50,13.64,0000 0000 0000 0000 000000
2017-03-17 12:51:42,0.25,2.75,0.00,23.54,26.52,30.06,14.45,49.08,1016.64,2029.97,2566.06,2387.54,2735.87,599.66,594.64,13.69,0000 0000 0000 0000 000000
2017-03-17 12:56:43,0.25,2.76,0.00,23.61,26.52,30.08,14.53,49.13,1016.62,2029.98,2562.22,2384.94,2732.90,600.33,595.08,13.74,0000 0000 0000 0000 000000